Flag for Greece Weather past 2 weeks in Chania, Crete, Greece

Now
66 °F

Passing clouds.


Feels Like: 66 °F
Forecast: 65 / 78 °F
Wind: No wind

Location: Souda Airport

Current Time: Oct 21, 2014 at 7:44:51 PM

Latest Report: Oct 21, 2014 at 6:50 PM


Visibility: N/A

Pressure: 29.95 "Hg

Humidity: 64%

Dew point: 54 °F

Location of ChaniaLocation

Historic Weather in Chania — Graph

°F

Chania temperature yesterday

Maximum temperature yesterday: 70 °F (at 12:50 PM)
Minimum temperature yesterday: 57 °F (at 11:50 PM)
Average temperature yesterday: 64 °F

Past Weeks' High & Low Weather Summary

 TemperatureHumidityPressure
High88 °F (Oct 16, 2:50 PM)100% (Oct 7, 8:20 PM)30.21 "Hg (Oct 7, 8:20 PM)
Low55 °F (Oct 21, 6:50 AM)22% (Oct 16, 4:20 PM)29.01 "Hg (Oct 17, 8:00 AM)
Average69 °F71%30.05 "Hg
* Reported Oct 6 6:20 PM — Oct 21 6:20 PM, Chania, Weather by CustomWeather, © 2014

Note: Actual official high and low records may vary slightly from our data, if they occured in-between our weather recording intervals... More about our weather records

Advertising

Chania weather history for previous 24 hours

 ConditionsComfort  
Time TempWeatherWind HumidityBarometerVisibility
6:20 PM
Oct 21
70 °FPassing clouds.5 mph83%29.95 "HgN/A
5:50 PM70 °FPassing clouds.7 mph83%29.95 "HgN/A
5:20 PM72 °FPassing clouds.7 mph53%29.95 "HgN/A
4:50 PM72 °FPassing clouds.6 mph53%29.95 "HgN/A
4:20 PM72 °FPassing clouds.7 mph53%29.95 "HgN/A
3:50 PM72 °FPassing clouds.7 mph53%29.95 "HgN/A
3:20 PM73 °FPassing clouds.7 mph50%29.95 "HgN/A
2:50 PM73 °FPassing clouds.7 mph50%29.95 "HgN/A
1:50 PM72 °FPassing clouds.9 mph57%29.98 "HgN/A
1:20 PM72 °FPassing clouds.7 mph53%29.98 "HgN/A
12:50 PM72 °FPassing clouds.5 mph53%29.98 "HgN/A
12:20 PM72 °FPassing clouds.5 mph53%30.01 "HgN/A
11:50 AM72 °FPassing clouds.No wind53%30.01 "HgN/A
11:20 AM72 °FPassing clouds.No wind57%30.01 "HgN/A
10:50 AM70 °FPassing clouds.No wind57%30.01 "HgN/A
10:20 AM68 °FPassing clouds.No wind64%29.98 "HgN/A
9:50 AM66 °FPassing clouds.No wind68%29.98 "HgN/A
9:20 AM61 °FPassing clouds.No wind88%29.98 "HgN/A
8:50 AM61 °FPassing clouds.No wind83%29.98 "HgN/A
8:20 AM57 °FPassing clouds.No wind82%30.01 "HgN/A
7:50 AM57 °FPassing clouds.No wind77%30.01 "HgN/A
7:20 AM55 °FPassing clouds.No wind88%30.01 "HgN/A
6:50 AM55 °FPassing clouds.No wind88%30.01 "HgN/A
5:50 AM57 °FPassing clouds.No wind82%30.01 "HgN/A
5:20 AM57 °FPassing clouds.No wind77%30.01 "HgN/A
4:50 AM57 °FPassing clouds.No wind77%30.01 "HgN/A
4:20 AM57 °FPassing clouds.No wind77%30.04 "HgN/A
3:50 AM57 °FPassing clouds.No wind77%30.04 "HgN/A
3:20 AM57 °FPassing clouds.No wind77%30.04 "HgN/A
2:50 AM57 °FPassing clouds.No wind77%30.04 "HgN/A
2:20 AM57 °FPassing clouds.No wind77%30.04 "HgN/A
1:50 AM57 °FPassing clouds.No wind77%30.04 "HgN/A
1:20 AM57 °FPassing clouds.No wind77%30.07 "HgN/A
12:50 AM57 °FPassing clouds.No wind77%30.07 "HgN/A
12:20 AM57 °FPassing clouds.No wind77%30.07 "HgN/A
11:50 PM
Oct 20
57 °FPassing clouds.No wind77%30.07 "HgN/A
11:20 PM59 °FPassing clouds.No wind72%30.07 "HgN/A
10:50 PM59 °FPassing clouds.No wind72%30.07 "HgN/A
10:20 PM59 °FPassing clouds.No wind72%30.07 "HgN/A
9:50 PM59 °FPassing clouds.No wind72%30.07 "HgN/A
9:20 PM61 °FPassing clouds.No wind68%30.07 "HgN/A
8:50 PM61 °FPassing clouds.No wind68%30.07 "HgN/A
8:20 PM63 °FPassing clouds.No wind73%30.07 "HgN/A
7:50 PM63 °FPassing clouds.No wind73%30.07 "HgN/A
7:20 PM64 °FPassing clouds.No wind60%30.07 "HgN/A
Weather by CustomWeather, © 2014

See weather overviewHow to use our weather pages